Regional Weather Roundup
Issued by NWS

Home | Current Version | Previous Version | Text Only | Print | Product List | Glossary Off
Versions: 1 2 3 4 5 6 7 8 9 10 11 12 13 14 15 16 17 18 19 20 21 22 23 24 25 26 27 28 29 30 31 32 33 34 35 36 37 38 39 40 41 42 43 44 45 46 47 48 49 50

000
ASUS43 KIND 201559
RWRIN

WEATHER ROUNDUP FOR INDIANA
NATIONAL WEATHER SERVICE INDIANAPOLIS IN
1100 AM EST FRI JAN 20 2017

NOTE: "FAIR" INDICATES FEW OR NO CLOUDS BELOW 12,000 FEET WITH NO
SIGNIFICANT WEATHER AND/OR OBSTRUCTIONS TO VISIBILITY.

* - STATION DOES NOT REPORT WEATHER SUCH AS PRECIPITATION OR FOG.

+ - STATION NOT QUALITY CONTROLLED BY THE NATIONAL WEATHER SERVICE.
    USE DATA WITH CAUTION...ESPECIALLY DEWPOINT AND RELATIVE
    HUMIDITY OBSERVATIONS.

INZ001>003-010>013-019-020-201700-
NORTHWEST INDIANA

CITY           SKY/WX    TMP DP  RH WIND       PRES   REMARKS
GARY /AIRPORT/ CLOUDY    41  39  93 N5        29.65S FOG
MONTICELLO +   CLOUDY    43  42  96 SW8       29.67R FOG
VALPARAISO     FOG       40  39  97 E7        29.65R VSB 1/4

$$

LMZ046-743>745-201700-
SOUTHERN LAKE MICHIGAN

STATION/POSITION TIME  TEMP    WIND        PRES    WAVE
                       AIR SEA DIR/SP/G            HT
                 (UTC) (F)     (DEG/KT/KT) (MB)    (FT)
BURNS HARBOR     1540   34     360/  2/  3 1005.1R

$$

INZ004-005-014>016-021>024-201700-
NORTH CENTRAL INDIANA

CITY           SKY/WX    TMP DP  RH WIND       PRES   REMARKS
GOSHEN         CLOUDY    39  36  89 E5        29.64R FOG
SOUTH BEND     FOG       37  37 100 E5        29.65R VSB 1

$$

INZ006>009-017-018-025>027-201700-
NORTHEAST INDIANA

CITY           SKY/WX    TMP DP  RH WIND       PRES   REMARKS
ANGOLA *+      CLOUDY    34  34 100 E5        29.63S WCI  30
FORT WAYNE     DRZL/FOG  42  40  92 S7        29.65R VSB 1/4
KENDALLVILLE + CLOUDY    37  37 100 CALM      29.64R FOG

$$

INZ028-029-035-036-043>045-051>053-201700-
WEST CENTRAL INDIANA

CITY           SKY/WX    TMP DP  RH WIND       PRES   REMARKS
CRAWFORDSVL +  CLOUDY    46  46 100 SW9       29.69R FOG
LAFAYETTE      CLOUDY    47  46  97 SW10      29.67R
TERRE HAUTE    CLOUDY    50  49  96 W8        29.71R FOG

$$

INZ030>032-037>040-046>048-054>057-064-065-201700-
CENTRAL INDIANA

CITY           SKY/WX    TMP DP  RH WIND       PRES   REMARKS
ANDERSON       CLOUDY    50  50 100 SW8       29.69R
COLUMBUS       CLOUDY    54  54 100 S12       29.72R
INDIANAPOLIS   DRIZZLE   51  50  96 SW12      29.69R FOG
-EAGLE CREEK   CLOUDY    51  49  92 SW5       29.69R
KOKOMO +       CLOUDY    47  47 100 SW14      29.68R
MT COMFORT *+  CLOUDY    50  50 100 SW7       29.70R
SHELBYVILLE    CLOUDY    54  51  90 SW12      29.70R

$$

INZ033-034-041-042-049-050-058-059-201700-
EAST CENTRAL INDIANA

CITY           SKY/WX    TMP DP  RH WIND       PRES   REMARKS
MUNCIE         CLOUDY    52  49  89 SW13      29.67R

$$

INZ060-061-067>069-081>083-085>088-201700-
SOUTHWEST INDIANA

CITY           SKY/WX    TMP DP  RH WIND       PRES   REMARKS
EVANSVILLE     CLOUDY    56  49  77 SW12      29.75R
HUNTINGBURG *+ CLOUDY    55  50  83 SW9       29.75R

$$

INZ062-063-066-070>080-084-089>092-201700-
SOUTH CENTRAL AND SOUTHEAST INDIANA

CITY           SKY/WX    TMP DP  RH WIND       PRES   REMARKS
BLOOMINGTON    CLOUDY    53  49  86 W10       29.72R
MADISON *+     CLOUDY    55  52  88 SW12G17   29.76R
SEYMOUR +      CLOUDY    57  52  82 SW13      29.73R

$$





USA.gov is the U.S. government's official web portal to all federal, state and local government web resources and services.